Погода в Тетеринском

Россия / Костромская область     57°30′16″N   40°35′22″E
темп.,
°C
ветер,
м/с
пор.,
м/с
влажн.,
%
обл.,
%
осадки,
мм/ч
давл.,
гПа
погр.,
м
17 июня, чт
чт1700:00+12сз356545 0.0 101867
03:00+10сз47620 0.0 1020108
06:00+12сз397695 0.0 1021279
09:00+17сз58595 0.0 1022800
12:00+20сз575157 0.0 10231773
15:00+20сз68545 0.0 10231752
18:00+20сз356616 0.0 1024446
21:00+15з33752 0.0 102421
18 июня, пт
пт1800:00+13сз12860 0.0 102510
03:00+11вюв118732 0.0 102710
06:00+14ююв12835 0.0 102883
09:00+19ююз22697 0.0 1028478
12:00+22зюз235621 0.0 10271159
15:00+24зюз34547 0.0 10261414
18:00+23юз47696 0.0 1024360
21:00+18юз478155 0.0 102491
19 июня, сб
сб1900:00+16юз410785 0.0 1025167
03:00+15зюз411853 0.0 1025188
06:00+17зюз512845 0.0 1025301
09:00+22зюз697129 0.0 1024562
12:00+25зюз68625 0.0 10241134
15:00+26зюз58625 0.0 10221693
18:00+25зюз47700 0.0 1022391
21:00+20зюз35850 0.0 102266
20 июня, вс
вс2000:00+18зюз48805 0.0 1023114
03:00+17зюз46845 0.0 102396
06:00+18зюз36833 0.0 1023149
09:00+23зюз34690 0.0 1023430
12:00+26юз34600 0.0 10231034
15:00+27зюз34555 0.0 10221380
18:00+26ююз34670 0.0 1021259
21:00+21юз35780 0.0 102173
21 июня, пн
пн2100:00+18юз35810 0.0 102168
03:00+17зюз35840 0.0 102165
06:00+18юз36843 0.0 1021158
09:00+23зюз23685 0.0 1021421
12:00+26зюз335718 0.0 10201005
15:00+28зюз33526 0.0 10201478
18:00+27ююз126310 0.0 1019597
21:00+22юз34774 0.0 101943